This demonstration page uses our WeatherBlox Daily Observations layout. Learn more.

Left ArrowRight Arrow

36.17497, -115.13722

Hourly Observations for July 11, 2017

Temp ( °F °C ) Dew Point ( °F °C ) Humidity (%) Winds ( mph kmh ) Pressure ( in mb ) Visibility ( mi km ) Precip ( " mm )
12:53 am 00:53 Clear 87 30.6 55 12.8 34 34 NW 10 17 29.80 1009 10 16 N/A
1:53 am 01:53 Clear 87 30.6 54 12.2 32 32 WNW 3 6 29.80 1009 10 16 N/A
3:53 am 03:53 Clear 84 28.9 55 12.8 37 37 NNW 7 11 29.81 1010 10 16 N/A
4:53 am 04:53 Clear 82 27.8 57 13.9 42 42 N 3 6 29.82 1010 10 16 N/A
5:53 am 05:53 Sunny 82 27.8 57 13.9 42 42 N N/A 29.84 1011 10 16 N/A
6:53 am 06:53 Sunny 83 28.3 55 12.8 38 38 N 8 13 29.85 1011 10 16 N/A
7:53 am 07:53 Sunny 88 31.1 53 11.7 30 30 NNW 8 13 29.86 1011 10 16 N/A
8:53 am 08:53 Mostly Sunny 92 33.3 52 11.1 26 26 NE 5 7 29.87 1011 10 16 N/A
9:53 am 09:53 Mostly Sunny 94 34.4 52 11.1 24 24 N N/A 29.87 1012 10 16 N/A
10:53 am 10:53 Mostly Sunny 97 36.1 49 9.4 20 20 VRB 5 7 29.87 1011 10 16 N/A
11:53 am 11:53 Sunny 96 35.6 50 10 21 21 undefined N/A 29.85 1011 10 16 N/A
12:53 pm 12:53 Sunny 98 36.7 50 10 20 20 VRB 3 6 29.82 1010 10 16 N/A
1:53 pm 13:53 Sunny 101 38.3 50 10 18 18 N N/A 29.79 1009 10 16 N/A
2:53 pm 14:53 Sunny 104 40 49 9.4 16 16 VRB 3 6 29.76 1008 10 16 N/A
3:32 pm 15:32 Mostly Sunny 103 39.4 51 10.6 18 18 SE 15 24 29.56 1001 10 16 N/A
3:53 pm 15:53 Partly Cloudy with Nearby Thunderstorms 102 38.9 52 11.1 19 19 SSE 15 24 29.73 1007 10 16 N/A
4:12 pm 16:12 Partly Cloudy 101 38.3 53 11.7 20 20 SSE 18 30 29.56 1001 10 16 N/A
4:53 pm 16:53 Sunny 101 38.3 50 10 18 18 ESE 8 13 29.72 1007 10 16 N/A
5:53 pm 17:53 Sunny 102 38.9 48 8.9 16 16 E 5 7 29.71 1006 10 16 N/A
6:53 pm 18:53 Sunny 102 38.9 47 8.3 15 15 NE 7 11 29.72 1006 10 16 N/A
7:53 pm 19:53 Sunny 98 36.7 51 10.6 20 20 E 9 15 29.73 1007 10 16 N/A
8:53 pm 20:53 Clear 96 35.6 51 10.6 22 22 E 8 13 29.74 1007 10 16 N/A
9:53 pm 21:53 Clear 93 33.9 50 10 23 23 E 6 9 29.77 1008 10 16 N/A
10:53 pm 22:53 Clear 92 33.3 49 9.4 23 23 E 3 6 29.78 1008 10 16 N/A
11:53 pm 23:53 Clear 91 32.8 49 9.4 24 24 S 6 9 29.78 1009 10 16 N/A

Powered by AerisWeather